This demonstration page uses our WeatherBlox Daily Observations layout. Learn more.

Left ArrowRight Arrow

41.86663, -103.66717

Hourly Observations for November 19, 2016

Temp ( °F °C ) Dew Point ( °F °C ) Humidity (%) Winds ( mph kmh ) Pressure ( in mb ) Visibility ( mi km ) Precip ( " mm )
12:53 am 00:53 Clear 16 -8.9 12 -11.1 84 84 E 5 7 30.52 1033 10 16 N/A
1:53 am 01:53 Clear 15 -9.4 11 -11.7 84 84 E 8 13 30.50 1033 10 16 N/A
2:53 am 02:53 Clear with Light Snow 14 -10 9 -12.8 80 80 E 5 7 30.50 1033 10 16 N/A
3:53 am 03:53 Clear 13 -10.6 8 -13.3 81 81 N N/A 30.50 1033 10 16 N/A
4:53 am 04:53 Clear 13 -10.6 8 -13.3 81 81 ESE 3 6 30.51 1033 10 16 N/A
5:53 am 05:53 Clear with Light Snow 13 -10.6 8 -13.3 81 81 ESE 6 9 30.51 1033 10 16 N/A
6:53 am 06:53 Sunny with Light Snow 11 -11.7 7 -13.9 84 84 ESE 8 13 30.52 1033 9 14 N/A
7:53 am 07:53 Sunny with Light Snow 18 -7.8 13 -10.6 81 81 ESE 10 17 30.49 1033 9 14 N/A
8:53 am 08:53 Sunny with Light Snow 23 -5 17 -8.3 78 78 ESE 9 15 30.47 1032 10 16 N/A
9:53 am 09:53 Sunny 32 undefined 19 -7.2 59 59 SE 10 17 30.41 1030 10 16 N/A
10:53 am 10:53 Sunny 35 1.7 20 -6.7 54 54 SE 13 20 30.37 1028 10 16 N/A
11:53 am 11:53 Sunny 39 3.9 20 -6.7 46 46 SE 14 22 30.31 1026 9 14 N/A
12:53 pm 12:53 Sunny 44 6.7 20 -6.7 38 38 SE 10 17 30.27 1025 10 16 N/A
1:53 pm 13:53 Sunny 43 6.1 21 -6.1 42 42 SE 12 19 30.25 1025 10 16 N/A
2:53 pm 14:53 Sunny 43 6.1 21 -6.1 42 42 SE 15 24 30.24 1024 10 16 N/A
3:53 pm 15:53 Sunny 39 3.9 23 -5 53 53 ESE 13 20 30.24 1024 10 16 N/A
4:53 pm 16:53 Clear 35 1.7 23 -5 61 61 ESE 14 22 30.25 1025 9 14 N/A
5:53 pm 17:53 Clear with Light Snow 33 0.6 24 -4.4 70 70 ESE 14 22 30.25 1024 9 14 N/A
6:53 pm 18:53 Clear with Light Snow 30 -1.1 24 -4.4 79 79 ESE 13 20 30.25 1024 9 14 N/A
7:53 pm 19:53 Clear with Light Snow 29 -1.7 24 -4.4 82 82 E 14 22 30.22 1023 9 14 N/A
8:53 pm 20:53 Clear with Light Snow 28 -2.2 23 -5 81 81 ESE 12 19 30.20 1023 9 14 N/A
9:53 pm 21:53 Clear with Light Snow 28 -2.2 23 -5 81 81 E 9 15 30.15 1021 9 14 N/A
10:53 pm 22:53 Clear 27 -2.8 23 -5 85 85 E 8 13 30.14 1021 9 14 N/A
11:53 pm 23:53 Clear 24 -4.4 20 -6.7 84 84 N N/A 30.14 1021 10 16 N/A

Powered by AerisWeather